Location: Altensteigdorf
(48.5933°N, 8.6120°E)
Time: 13:27:59
(UTC+00:00)

Daily predictions for brighter satellites

Satellite Brightness Start Highest point End
(mag) Time Altitude Azimuth Time Altitude Azimuth Time Altitude Azimuth
Cosmos 1943 4.2 15:58:21 10° N 16:02:59 25° NE 16:07:35 10° E
Cosmos 1634 Rocket 4.0 15:58:36 10° N 16:04:55 71° E 16:11:14 10° SSE
Cosmos 1269 Rocket 4.2 16:00:16 10° NNW 16:05:25 49° ENE 16:10:32 10° SE
PSLV R/B 3.7 16:01:48 10° SSE 16:06:02 84° WSW 16:10:21 10° NNW
SL-08 RB Rocket 3.7 16:02:31 10° SSE 16:06:59 84° ENE 16:11:31 10° NNW
Cosmos 614 Rocket 4.0 16:02:52 10° NNW 16:08:06 66° ENE 16:13:15 10° SSE
BREEZE-M DEB (TANK) 3.2 16:05:14 10° SW 16:08:16 69° SE 16:18:20 10° ENE
Cosmos 1076 Rocket 4.1 16:05:15 10° N 16:09:18 35° ENE 16:13:18 10° SE
Tiangong 0.7 16:08:26 10° WSW 16:10:30 16° SSW 16:12:33 10° SSE
NOSS 3-4 (A) 3.9 16:04:52 10° NW 16:11:44 81° NE 16:19:40 10° SE
Meteor 2-16 Rocket 4.5 16:05:40 10° S 16:11:46 73° E 16:17:53 10° NNE
NOSS 3-4 (C) 3.9 16:05:01 10° NW 16:11:50 81° NE 16:19:40 10° SE
SAR-Lupe-2 3.5 16:08:34 10° SSE 16:12:07 65° ENE 16:15:41 10° N
NOSS 3-3 (C) 4.1 16:07:51 10° SW 16:13:25 70° NW 16:20:01 10° NE
NOSS 3-3 (A) 4.1 16:08:15 10° SW 16:13:48 69° NW 16:20:22 10° NE
Cosmos 2297 Rocket 2.7 16:08:48 10° SW 16:14:23 61° WNW 16:20:01 10° NNE
ERS-2 1.9 16:12:32 10° S 16:15:28 70° WSW 16:18:25 10° NNW
Cosmos 1953 Rocket 3.5 16:11:26 10° N 16:15:56 72° E 16:20:20 10° SSE
Cosmos 2219 3.4 16:10:55 10° S 16:16:22 56° ESE 16:21:53 10° NE
Cosmos 44 3.6 16:13:14 10° NNW 16:18:36 58° NE 16:23:45 10° SE
Cosmos 1125 Rocket 4.4 16:14:02 10° SW 16:19:07 50° WNW 16:24:16 10° NNE
DMSP B5D2-2 4.3 16:17:21 10° NNE 16:22:28 53° E 16:27:32 10° S
USA 234 3.8 16:16:43 10° ENE 16:22:55 43° SE 16:29:04 10° SSW
Cosmos 1862 3.3 16:20:09 10° N 16:24:05 86° WSW 16:27:59 10° S
USA 308 2.4 16:22:37 10° WNW 16:24:40 38° SW 16:26:24 10° SE
USA 307 2.9 16:23:57 10° WNW 16:27:43 48° NNE 16:31:18 11° E
Cosmos 1666 3.2 16:24:51 10° N 16:28:04 32° ENE 16:31:16 10° SE
Cosmos 2084 Rocket 4.3 16:27:01 10° NW 16:30:43 48° SW 16:34:23 10° SSE
ISS -3.8 16:28:35 10° WNW 16:31:58 80° NNE 16:35:19 10° ESE
Cosmos 2279 Rocket 4.0 16:26:47 10° N 16:33:03 76° E 16:39:16 10° SSE
Cosmos 2082 4.0 16:28:24 10° S 16:33:45 48° ESE 16:39:09 10° NE
Meteor 1-27 4.5 16:28:08 10° SSW 16:33:47 74° WNW 16:39:24 10° N
Aureole 3 Rocket 3.5 16:28:55 10° NNW 16:33:59 67° W 16:37:40 10° S
AQUARIUS 4.2 16:30:45 10° SSE 16:35:06 55° ENE 16:39:28 10° N
COSMO-SKYMED 1 4.0 16:34:41 12° NE 16:37:17 19° E 16:40:25 10° SE
Cosmos 1606 4.0 16:33:56 10° SW 16:37:20 38° WNW 16:40:48 10° N
ATLAS CENTAUR R/B 2.6 16:34:43 10° NW 16:38:32 57° NNE 16:45:48 10° ESE
Cosmos 2058 Rocket 3.0 16:34:38 10° S 16:39:03 69° E 16:43:27 10° NNE
YAOGAN 11 4.2 16:41:09 10° NNE 16:45:43 87° WNW 16:50:15 10° SSW
Cosmos 405 Rocket 2.8 16:42:16 10° SSW 16:46:02 79° WNW 16:49:54 10° N
Helios 1A 3.6 16:44:14 10° NNE 16:48:03 34° E 16:51:50 10° SSE
Cosmos 1140 Rocket 3.8 16:44:48 10° NNW 16:49:43 41° ENE 16:54:35 10° SE
SMAP 3.2 16:48:39 10° S 16:53:18 79° WSW 16:58:00 10° NNW
USA 306 1.0 16:51:14 10° WNW 16:53:27 67° NNE 16:54:02 40° E
Nadezhda 4 Rocket 4.2 16:48:19 10° SSE 16:54:10 48° E 17:00:02 10° NNE
NOSS 8 (A) 4.5 16:51:44 10° SSW 16:55:31 59° SE 16:57:08 25° ENE
CZ-4B R/B 4.2 16:58:56 21° ENE 16:58:56 21° ENE 17:02:03 10° NNE
Cosmos 1500 3.1 16:55:25 10° NNW 16:58:57 76° W 17:02:28 10° S
Meteor 1-20 Rocket 4.3 16:53:59 10° N 16:59:23 50° ENE 17:04:51 10° SSE
Cosmos-2242 3.4 16:57:25 10° SSE 17:01:29 41° E 17:05:03 13° NNE
Cosmos 1437 Rocket 3.9 16:59:37 10° NNW 17:03:10 44° W 17:06:43 10° SSW
NOAA 6 4.1 17:01:59 10° SE 17:06:59 56° ENE 17:12:00 10° N
Cosmos 2263 Rocket 2.1 17:01:55 10° SSW 17:07:27 75° ESE 17:12:14 14° NNE
USA 276 3.2 17:06:19 10° SSW 17:08:15 21° SSE 17:08:15 21° SSE
SL-8 R/B 3.8 17:03:56 10° W 17:08:43 75° SSW 17:11:59 20° ESE
Cosmos 1844 Rocket 4.1 17:05:46 10° SE 17:08:54 18° ESE 17:08:54 18° ESE
Cosmos 2227 Rocket 3.2 17:04:57 10° SW 17:10:18 43° NW 17:15:42 10° NNE
RESURS DK-1 4.4 17:08:15 10° N 17:09:17 13° NNE 17:09:17 13° NNE
Cosmos 2151 4.2 17:06:41 10° NNW 17:10:46 45° W 17:14:50 10° SSW
CZ-4 R/B 4.4 17:13:32 10° SSE 17:17:32 57° ENE 17:21:34 10° N
YAOGAN 1 3.6 17:19:24 26° NE 17:19:24 26° NE 17:22:06 10° N
Cosmos 1603 3.8 17:14:38 10° NNW 17:20:16 55° ENE 17:25:48 10° SE
Cosmos 1812 2.5 17:17:12 10° S 17:20:49 59° E 17:22:20 31° NNE
Cosmos 2251 Rocket 3.5 17:16:37 10° NNW 17:21:54 59° ENE 17:27:11 10° SE
CZ-4B R/B 3.5 17:17:34 10° SSE 17:22:41 86° WSW 17:27:41 10° NNW
SKYMED 2 3.6 17:23:18 25° NNE 17:25:40 55° E 17:29:56 10° S
Cosmos 407 Rocket 3.4 17:21:28 10° NNW 17:26:36 59° ENE 17:31:38 10° SE
USA 305 2.5 17:23:51 10° WNW 17:27:42 76° NNE 17:28:38 49° E
ATLAS 2AS CENTAUR R/B 3.1 17:21:09 10° NW 17:27:44 41° NNE 17:30:16 30° ENE
APEX 4.5 17:25:20 10° S 17:26:37 19° SSE 17:26:37 19° SSE
Meteor 1-31 Rocket 4.4 17:25:43 10° SSW 17:29:06 34° W 17:32:31 10° NNW
Lacrosse 4 Rocket 1.3 17:27:49 10° NNW 17:32:12 76° NE 17:34:32 26° SE
SL-16 R/B 4.1 17:28:18 10° NW 17:33:12 31° WSW 17:38:06 10° SSW
Cosmos 1782 3.5 17:35:03 10° SSE 17:37:38 35° SE 17:37:38 35° SE
Cosmos 1818 4.0 17:34:41 10° S 17:39:45 41° ESE 17:40:24 40° E
Meteor 2-2 Rocket 4.2 17:36:04 10° S 17:41:46 71° E 17:47:28 11° NNE
Meteor 2-9 4.5 17:36:51 10° N 17:42:16 76° ENE 17:47:43 10° SSE
Meteor 2-17 Rocket 4.4 17:39:02 10° S 17:45:03 61° E 17:51:05 10° NNE
Cosmos 1943 3.4 17:41:57 10° NNW 17:47:35 72° WSW 17:53:11 10° SSE
Cosmos 1812 Rocket 3.5 17:45:39 10° SSW 17:49:59 80° WNW 17:52:19 27° N
CZ-4B DEB 4.2 17:49:04 23° SE 17:52:29 58° ENE 17:57:56 10° N
Radarsat Rocket 4.2 17:46:56 10° S 17:52:43 69° WSW 17:58:45 10° NNW
SL-08 R/B 3.1 17:54:03 56° NE 17:54:58 76° ESE 17:59:35 10° S
Cosmos 1190 Rocket 3.9 17:50:16 10° NNW 17:55:33 61° ENE 17:56:11 57° E
ADEOS 3.6 17:52:06 10° SSE 17:57:19 82° WSW 18:02:35 10° NNW
ADEOS Rocket 4.5 18:05:29 18° NNE 18:05:29 18° NNE 18:07:14 10° N
USA 307 3.3 17:59:33 10° WNW 18:03:12 51° SW 18:03:12 51° SW
USA 234 3.3 18:03:40 40° NE 18:06:13 74° NNW 18:12:44 10° WSW
ISS -1.7 18:05:39 10° W 18:08:24 25° SW 18:08:24 25° SW
PAYLOAD B 4.4 18:09:59 53° NNE 18:09:59 53° NNE 18:14:34 10° N
Cosmos 1553 Rocket 3.9 18:03:08 10° N 18:09:27 61° ENE 18:10:27 54° ESE
Cosmos 1844 4.5 18:05:33 10° S 18:09:25 37° SSE 18:09:25 37° SSE
Cosmos 2344 3.3 18:06:02 10° SW 18:13:35 83° SE 18:16:08 45° NE
COSMO-SKYMED 1 3.4 18:11:54 30° NNW 18:13:44 50° WNW 18:17:55 10° SW
Cosmos 2026 Rocket 4.1 18:16:15 10° SSW 18:22:29 75° W 18:28:52 10° N
Meteor 1-26 Rocket 4.4 18:17:05 10° S 18:21:28 57° SSE 18:21:28 57° SSE
Lacrosse 5 3.1 18:22:08 10° SSW 18:24:56 30° S 18:24:56 30° S
SME Rocket 4.3 18:26:34 12° S 18:31:29 72° WSW 18:39:45 10° NNW
CZ-4B R/B 4.5 18:34:39 34° NW 18:34:39 34° NW 18:37:20 10° NNW
Cosmos 1092 Rocket 4.4 18:29:50 10° SSW 18:35:52 58° WNW 18:41:57 10° N
ATLAS CENTAUR R/B 4.2 18:38:43 10° WNW 18:43:36 40° SW 18:52:07 11° SSE
Cosmos 2263 Rocket 4.0 18:47:31 10° W 18:51:58 24° NW 18:53:55 20° NNW
Cosmos 1844 Rocket 3.6 18:47:02 10° SSW 18:50:37 42° SW 18:50:37 42° SW
Lacrosse 4 Rocket 4.3 19:07:45 10° WNW 19:09:59 14° WSW 19:10:40 14° WSW
ATLAS 2AS CENTAUR R/B 3.2 19:12:14 10° NW 19:17:44 54° WNW 19:17:44 54° WNW
